Meteo Giornale » Osservazioni meteo Italia » Verona-Villafranca

ore: 17:50 - Osservazioni Meteo Verona-Villafranca
Lat. 45° 23' N Lon. 10° 52' E Alt. 67 metri s.l.m.

sereno Europe/Rome

31 °C

Sereno

Temp. 24 Ore

20 °C

31 °C

Est

11.1 Km/h

Dew point 16 °C

Umidità 40 %

Visibilità  10 Km

Il sole sorge alle ore 06:23

Il sole tramonta alle ore 20:15

Data e Ora Cielo e Fenomeni T °C DP °C Um. % Pres. hPa Vis. km Vento km/h
Oggi h: 17:50 sereno Sereno 31 16 40 1017 10 E 11.1
Oggi h: 17:20 sereno Sereno 31 16 40 1017 10 E 14.8
Oggi h: 16:50 sereno Sereno 31 16 40 1017 10 E 16.7
Oggi h: 16:20 poco_nuvoloso Poco Nuvoloso 31 16 40 1017 10 E 9.3
Oggi h: 15:50 poco_nuvoloso Poco Nuvoloso 31 17 43 1017 10 N 5.5
Oggi h: 15:20 poco_nuvoloso Poco Nuvoloso 31 18 45 1017 10 E/SE 9.3
Oggi h: 14:50 sereno Sereno 31 20 52 1017 10 E/SE 9.3
Oggi h: 14:20 sereno Sereno 31 19 48 1018 10 N 5.5
Oggi h: 13:50 sereno Sereno 31 19 48 1018 10 N 5.5
Oggi h: 13:20 sereno Sereno 31 19 48 1018 10 N 5.5
Oggi h: 12:50 sereno Sereno 30 19 51 1018 10 N 3.7
Oggi h: 12:20 sereno Sereno 29 18 51 1018 10 N 5.5
Oggi h: 11:50 sereno Sereno 30 19 51 1018 10 N 3.7
Oggi h: 11:20 sereno Sereno 29 19 54 1018 10 N 3.7
Oggi h: 10:50 sereno Sereno 28 20 61 1018 10 N 5.5
Oggi h: 10:20 sereno Sereno 27 20 65 1018 10 N 5.5
Oggi h: 09:50 sereno Sereno 27 19 61 1018 10 N 3.7
Oggi h: 09:20 sereno Sereno 26 19 65 1018 10 N 3.7
Oggi h: 08:50 sereno Sereno 24 20 78 1018 10 N 5.5
Oggi h: 08:20 sereno Sereno 23 19 78 1018 10 N 3.7
Oggi h: 07:50 sereno Sereno 22 19 83 1018 10 N 3.7
Oggi h: 07:20 sereno Sereno 21 19 88 1017 10 O/NO 7.4
Oggi h: 06:50 nuvoloso Nuvoloso 21 19 88 1017 10 N 5.5
Oggi h: 06:20 sereno Sereno 20 18 88 1017 10 N 5.5
Oggi h: 05:50 sereno Sereno 21 18 82 1016 10 N 3.7
Oggi h: 05:20 sereno Sereno 21 18 82 1016 10 SO 7.4
Oggi h: 04:50 sereno Sereno 21 18 82 1016 10 SO 7.4
Oggi h: 04:20 sereno Sereno 21 19 88 1016 10 N 3.7
Oggi h: 03:50 sereno Sereno 22 19 83 1016 10 SO 7.4
Oggi h: 03:20 sereno Sereno 22 18 78 1016 10 SO 7.4
Oggi h: 02:50 sereno Sereno 22 18 78 1016 10 N 3.7
Oggi h: 02:20 sereno Sereno 22 18 78 1016 10 N 5.5
Oggi h: 01:50 sereno Sereno 22 18 78 1016 10 N 3.7
Oggi h: 01:20 sereno Sereno 23 18 73 1016 10 NO 9.3
Oggi h: 00:50 sereno Sereno 23 18 73 1016 10 N 5.5
Oggi h: 00:20 sereno Sereno 24 17 64 1016 10 N 5.5
Ieri h: 23:50 sereno Sereno 24 18 69 1017 10 NE 7.4
Ieri h: 23:20 sereno Sereno 25 18 65 1016 10 N 5.5
Ieri h: 22:50 sereno Sereno 25 18 65 1016 10 N 1.8
Ieri h: 22:20 sereno Sereno 26 19 65 1016 10 E 7.4
Ieri h: 21:20 sereno Sereno 27 19 61 1017 10 N 5.5
Ieri h: 20:50 sereno Sereno 27 19 61 1016 10 N 5.5
Ieri h: 20:20 sereno Sereno 28 19 58 1016 10 E 7.4
Ieri h: 19:50 sereno Sereno 29 19 54 1015 10 E 7.4
Ieri h: 19:20 sereno Sereno 30 19 51 1015 10 E 7.4
Ieri h: 18:50 sereno Sereno 31 19 48 1015 10 E/NE 9.3